• Processing (Info)

  • MPEC 2023-J113 : 2006 YV1

    The following Minor Planet Electronic Circular may be linked-to from your own Web pages, but must not otherwise be redistributed electronically.

    A form allowing access to any MPEC is at the bottom of this page.


    Read MPEC 2023-J112 Read MPEC 2023-J114


    M.P.E.C. 2023-J113                                 Issued 2023 May 12, 17:42 UT
    
         The Minor Planet Electronic Circulars contain information on unusual
             minor planets, routine data on comets and natural satellites,
             and occasional editorial announcements.  They are published
        on behalf of Division F of the International Astronomical Union by the
              Minor Planet Center, Smithsonian Astrophysical Observatory,
                              Cambridge, MA 02138, U.S.A.
    			  
                 Prepared using the Tamkin Foundation Computer Network
    
                                  MPC@CFA.HARVARD.EDU
                URL https://www.minorplanetcenter.net/    ISSN 1523-6714
    
                                    2006 YV1                                 
    
    
                               Revision to MPEC 2006-Y28                            
    
    Additional Observations:
         K06Y01V  C2023 05 10.31137713 01 42.152-23 19 05.27         21.28wXEJ113F52
         K06Y01V  C2023 05 10.32086813 01 40.486-23 18 55.49         21.57wXEJ113F52
         K06Y01V  C2023 05 10.33037713 01 38.834-23 18 45.81         21.38wXEJ113F52
         K06Y01V  C2023 05 10.40240713 01 26.143-23 17 28.93         21.45GVEJ113F51
         K06Y01V  C2023 05 10.40304713 01 26.028-23 17 28.15         21.46GVEJ113F51
         K06Y01V  C2023 05 10.40368813 01 25.931-23 17 27.48         21.33GVEJ113F51
         K06Y01V  C2023 05 10.40433013 01 25.807-23 17 26.91         21.64GVEJ113F51
         K06Y01V |C2023 05 11.98794 12 57 04.26 -22 48 47.5          21.3 GVEJ113807
         K06Y01V |C2023 05 11.99534 12 57 02.98 -22 48 39.4          21.1 GVEJ113807
         K06Y01V |C2023 05 12.00273 12 57 01.73 -22 48 31.5          21.4 GVEJ113807
         K06Y01V KC2023 05 12.43717612 55 50.04 -22 40 31.7          21.0 GVEJ113474
         K06Y01V KC2023 05 12.44034412 55 49.51 -22 40 27.6          21.5 GVEJ113474
         K06Y01V KC2023 05 12.44421512 55 48.86 -22 40 23.3          21.6 GVEJ113474
         K06Y01V KC2023 05 12.44773412 55 48.23 -22 40 19.8          21.3 GVEJ113474
    
    Observer details:
    474 Mount John Observatory, Lake Tekapo.  Observers A. C. Gilmore, P. M.
        Kilmartin.  Measurer P. M. Kilmartin.  1.0-m f/7.7 reflector + CCD.
    807 Cerro Tololo Observatory, La Serena.  Observers T. Linder, R. Holmes, L.
        Horn.  1.00-m f/10.0 astrograph + CCD.
    F51 Pan-STARRS 1, Haleakala.  Observers J. Bulger, K. Chambers, T. Lowe, A.
        Schultz, I. Smith.  Measurers S. Chastel, J. Fairlamb, M. Huber, Y.
        Ramanjooloo, R. Wainscoat, R. Weryk.  1.8-m Ritchey-Chretien + CCD.
    F52 Pan-STARRS 2, Haleakala.  Observers J. Bulger, T. Lowe, A. Schultz, I.
        Smith.  Measurers K. Chambers, S. Chastel, T. de Boer, J. Fairlamb, H.
        Gao, M. Huber, C.-C. Lin, E. Magnier, Y. Ramanjooloo, R. Wainscoat, R.
        Weryk.  1.8-m Ritchey-Chretien + CCD.
    
    First and last observations above in comparison with prediction:
    Residuals in seconds of arc (or two decimals in degrees), reference and Delta-T
    230510 F52 7.97- 5.01-    230512 474 7.71- 5.11-    MPO740084   -6.61 days
    
    Orbital elements:
    2006 YV1                                                 Earth MOID = 0.0570 AU
    Epoch 2023 Feb. 25.0 TT = JDT 2460000.5                 Veres                   
    M 224.33077              (2000.0)            P               Q                  
    n   0.69962661     Peri.   49.77526     +0.98923131     +0.12694451             
    a   1.2566813      Node   302.81368     -0.14609636     +0.88634400             
    e   0.4435037      Incl.    4.97241     +0.00879020     +0.44528576             
    P   1.41           H   21.61          G   0.15           U   2                  
    Residuals in seconds of arc
    061220 703  0.3-  0.0     061222 H45  0.0   0.3-    061227 A53  0.7+  0.1-
    061220 703  0.1-  0.8+    061222 H45  0.4-  0.2+    061227 H45  0.0   0.5+
    061220 703  0.0   1.5+    061223 H45  0.3+  0.0     061227 H45  0.1-  0.3+
    061220 703  0.3-  0.2-    061223 H45  0.9-  0.2-    061227 H45  0.3+  0.1+
    061220 703  0.1-  0.5-    061223 H45  0.0   0.2+    061227 H45  0.2+  0.6+
    061220 703  0.1-  0.2-    061223 H45  0.1+  0.2+    061227 H45  0.0   0.2+
    061220 703  0.2+  0.0     061223 H45  0.3+  0.2+    061227 H45  0.0   0.5+
    061220 151  0.4-  0.2-    061223 H45  0.2+  0.1-    061227 H45  0.1-  0.1+
    061220 151  0.2-  0.2+    061223 H45  0.3-  0.1-    061227 113  0.2+  0.5+
    061220 151  0.5-  0.4+    061224 A48  0.5+  0.6+    061227 113  0.1+  0.3+
    061220 151  1.4-  0.5+    061224 A48  0.1+  0.5+    061227 113  0.4+  0.1+
    061220 473  0.6+  1.6-    061224 A48  0.4+  0.7+    061227 113  0.1-  0.2+
    061220 473  1.0+  0.7-    061224 A48  0.4+  0.4+    061231 170  0.4+  0.2+
    061220 143  0.2-  0.0     061226 448  0.0   0.4+    061231 170  0.3+  0.3+
    061220 A99  4.7+  1.7+    061226 448  0.0   0.2+    061231 170  0.3+  0.1+
    061220 143  0.2-  0.1-    061226 448  0.2+  0.3+    070107 941  0.2-  0.3-
    061220 473  0.3+  0.1-    061226 448  0.2-  0.3+    070107 941  0.4-  0.5-
    061220 A99  4.0+  1.0+    061226 448  0.4+  0.2+    070107 941  0.3-  0.4-
    061220 A99  4.8+  0.4+    061226 H45  0.0   0.1+    230510 F52  0.1-  0.1+
    061220 A99  4.6+  1.2+    061226 H45  0.4-  0.1-    230510 F52  0.0   0.0
    061220 473  0.2-  0.0     061226 H45  0.1-  0.3+    230510 F52  0.3+  0.3-
    061220 A99  4.7+  1.0+    061226 703  0.2+  0.0     230510 F51  0.1+  0.1+
    061220 A99  3.0+  1.6+    061226 H45  0.3-  0.0     230510 F51  0.1+  0.2+
    061220 J95  0.2+  0.2-    061226 H45  0.2-  0.1+    230510 F51  0.3+  0.1+
    061220 J95  0.1-  0.3-    061226 H45  0.2-  0.2+    230510 F51  0.1+  0.0
    061220 J95  0.2+  0.2-    061226 H45  0.3-  0.3+    230511 807  0.0   0.1-
    061222 H45  0.1+  0.1+    061226 H45  0.4-  0.1+    230511 807  0.3-  0.1+
    061222 H45  0.0   0.1-    061226 703  0.4+  0.1+    230512 807  0.2-  0.1+
    061222 H45  0.1-  0.1-    061226 703  0.1-  0.2+    230512 474  0.0   0.4-
    061222 H45  0.2+  0.1+    061226 703  0.2-  0.1-    230512 474  0.1+  0.2+
    061222 H45  0.4-  0.2+    061226 A53  0.3-  0.2-    230512 474  0.1+  0.2+
    061222 H45  0.0   0.0     061226 A53  0.8+  0.0     230512 474  0.3-  0.2-
    
    Ephemeris:
    2006 YV1                 a,e,i = 1.26, 0.44, 5                   q = 0.6993
    Date    TT    R. A. (2000) Decl.     Delta      r    Elong.  Phase     V
    2023 04 12    14 17 25.5 -27 35 33   0.6015  1.5719   156.4    14.8    22.3
    ...
    2023 04 27    13 40 19.8 -26 24 41   0.5054  1.4998   164.8    10.2    21.7
    ...
    2023 05 05    13 16 58.8 -24 45 33   0.4739  1.4574   157.4    15.4    21.7
    ...
    2023 05 11    12 59 46.8 -23 06 41   0.4590  1.4237   149.3    21.3    21.7
    2023 05 12    12 57 01.6 -22 48 39   0.4572  1.4180   147.8    22.3    21.7
    2023 05 13    12 54 19.1 -22 30 16   0.4556  1.4122   146.3    23.4    21.8
    ...
    2023 05 19    12 39 12.6 -20 34 51   0.4491  1.3765   137.5    29.8    21.9
    ...
    2023 05 27    12 22 52.0 -17 58 36   0.4478  1.3267   126.0    38.2    22.0
    ...
    2023 06 11    12 04 52.7 -13 43 45   0.4552  1.2264   106.7    52.4    22.3
    
    A. U. Tomatic                (C) Copyright 2023 MPC           M.P.E.C. 2023-J113
    


    Read MPEC 2023-J112 Read MPEC 2023-J114


    MPEC number:

    Enter an MPEC number in one of the following forms:

    • 1997-B01 (the full form)
    • J97B01 (the packed version of the full form)
    • B01 (the abbreviated form)